TIME,DELAY(SENSOR),PRES,T(CTD),SAL,OXYGEN,RAWTEMP,T(OPTODE),TCPHASE,FLUOR,BETA(BETA700),BETA(BETA412),BETA(BETA440),CDOM,C(CSC),ED(ED412.40),ED(ED444.00),ED(ED489.70),ED(ED554.30),LU(LU411.80),LU(LU443.40),LU(LU489.60),LU(LU554.10),COMP,TILTX,TILTX(TILTY),CHECK
1377984866,5804,492.2999877929687500,6.8003997802734375,34.1553001403808600,72.3309783935546900,593.7719116210938000,6.7852749824523930,49.7429695129394500,51,103,87,79,76,15225,2147748242,2147426550,2148006226,2147874779,2147627446,2147073371,2148248576,2147199990,3223,4,13,56822
1377984995,5808,480.4400024414062500,6.8196001052856445,34.1291999816894500,79.5484771728515600,593.1860961914062000,6.8041591644287110,48.8637695312500000,51,103,85,79,77,15229,2147747446,2147427565,2148007597,2147870116,2147627309,2147074962,2148244534,2147201298,2462,3,13,52500
1377985137,5809,469.9200134277344000,7.1697998046875000,34.1493988037109400,83.5005493164062500,582.9174804687500000,7.1347241401672360,48.2507209777832000,52,106,88,79,76,15223,2147743131,2147427136,2148006454,2147872694,2147628525,2147075867,2148245110,2147201801,1422,4,13,37867
1377985302,5808,456.9800109863281000,7.4299998283386230,34.1698989868164060,81.1882019042968800,573.6691284179688000,7.4316229820251465,48.3860702514648440,53,106,86,79,76,15224,2147742052,2147422957,2148005430,2147872146,2147626285,2147077494,2148243410,2147194788,2880,4,13,37468
1377985412,5809,446.4700012207031000,7.6196999549865720,34.1748008728027340,83.4755401611328100,568.3214111328125000,7.6029529571533200,48.0381507873535160,53,104,86,79,77,15224,2147740205,2147427099,2148004141,2147872813,2147624502,2147082294,2148240283,2147203044,2381,4,13,43374
1377985527,5808,435.3900146484375000,7.8715000152587890,34.1394996643066400,101.2210006713867200,559.4418945312500000,7.8868851661682130,45.9258613586425800,51,104,83,79,75,15223,2147742518,2147426404,2148006070,2147872658,2147627474,2147088886,2148238939,2147201124,1803,3,13,35882
1377985644,5808,424.3699951171875000,8.3479003906250000,34.1699981689453100,103.8583984375000000,545.7205200195312000,8.3243322372436520,45.4312095642089840,51,105,87,80,74,15220,2147737746,2147426532,2148007076,2147874651,2147622509,2147088210,2148235026,2147203401,629,4,13,17679
1377985771,5808,412.7900085449219000,8.4447002410888670,34.1478004455566400,115.7326965332031200,542.4542846679688000,8.4282321929931640,44.1715202331543000,50,104,86,79,75,15220,2147738459,2147425490,2148003291,2147873371,2147618779,2147090614,2148237979,2147207213,3159,3,13,15580
1377985900,5811,402.4100036621094000,8.6977996826171880,34.1031990051269500,144.7756042480468800,534.2020874023438000,8.6903629302978520,41.3981513977050800,50,105,83,80,73,15226,2147736905,2147428141,2148005129,2147875053,2147619574,2147094235,2148226953,2147201792,2411,4,13,28997
1377986051,5810,391.7799987792969000,8.8969001770019530,34.1114006042480500,155.2855987548828000,528.0819091796875000,8.8844223022460940,40.4377403259277340,50,103,87,80,72,15223,2147736374,2147429065,2148006893,2147871524,2147617014,2147092470,2148231872,2147201938,1701,3,13,19023
1377986222,5805,379.6199951171875000,9.2610998153686520,34.1190986633300800,162.5124053955078000,516.6008911132812000,9.2476940155029300,39.6799888610839840,50,105,84,81,72,15224,2147735168,2147426194,2148008310,2147872429,2147615222,2147091465,2148228507,2147201700,3566,4,13,53128
1377986341,5807,367.9100036621094000,9.6562004089355470,34.1277999877929700,166.0834045410156200,503.5477905273437500,9.6595277786254880,39.1869087219238300,50,104,84,79,71,15224,2147736566,2147425755,2148006354,2147871570,2147615232,2147098642,2148232182,2147201472,3001,3,13,55464
1377986444,5809,356.1799926757812500,9.9975004196167000,34.1324005126953100,167.1871948242187500,493.3687133789062500,9.9798479080200200,38.9322204589843750,49,103,86,78,71,15219,2147735296,2147428662,2148007579,2147873069,2147614473,2147093540,2148225856,2147204754,2965,3,13,2595
1377986531,5811,346.2500000000000000,10.1459999084472660,34.1319999694824200,173.1118927001953000,488.5508117675781000,10.1312103271484380,38.4185981750488300,50,105,86,81,70,15221,2147733705,2147426916,2148004909,2147872429,2147609636,2147095899,2148221129,2147203264,3144,4,13,27285
1377986642,5810,335.9400024414062500,10.3454999923706050,34.1334991455078100,182.5420074462890600,482.2614135742187500,10.3285799026489260,37.6549682617187500,49,104,85,79,71,15222,2147727734,2147429120,2148010651,2147874706,2147609645,2147098313,2148224996,2147206153,3214,3,13,40886
1377986807,5809,325.1300048828125000,10.8358001708984380,34.1394996643066400,186.4385070800781200,467.1310119628906000,10.8023300170898440,37.1407585144043000,49,105,85,80,69,15223,2147732315,2147426761,2148013248,2147873700,2147608475,2147105106,2148225353,2147205275,1795,3,14,38907
1377987030,5806,313.9800109863281000,11.3250999450683600,34.1655006408691400,193.7819976806640600,451.1055908203125000,11.3025903701782230,36.3991699218750000,49,104,86,80,67,15222,2147729316,2147429641,2148015963,2147873289,2147605248,2147104612,2148225737,2147205156,1235,3,14,13425
1377987200,5808,301.0299987792969000,11.7783002853393550,34.1862983703613300,202.8856964111328000,436.1095886230469000,11.7693796157836910,35.5924415588378900,48,104,86,80,68,15220,2147729600,2147432457,2148020461,2147872758,2147605952,2147110208,2148222619,2147208484,704,3,13,12657
1377987315,5809,289.5100097656250000,12.1464996337890620,34.2064018249511700,209.9290924072265600,424.4891052246094000,12.1302700042724610,34.9902305603027340,48,103,84,80,68,15217,2147725933,2147434770,2148033901,2147873536,2147599131,2147120530,2148229056,2147211712,310,3,13,44677
1377987432,5808,278.9500122070312500,12.7392997741699220,34.2374992370605500,212.4270019531250000,406.0309143066406000,12.7021503448486330,34.5556907653808600,48,105,86,80,67,15219,2147724077,2147436352,2148048146,2147872228,2147595465,2147125430,2148231222,2147207734,2934,3,13,40251
1377987571,5812,269.5599975585937500,13.2288999557495120,34.2645988464355500,211.3157043457031200,389.8425903320312500,13.2024202346801760,34.3681983947753900,48,103,87,79,67,15216,2147721252,2147441508,2148061824,2147872603,2147596114,2147124571,2148238692,2147208329,1364,3,14,46066
1377987796,5809,258.2300109863281000,14.1800003051757810,34.3530006408691400,211.6954040527343800,356.9572143554687500,14.2154598236083980,33.8447418212890600,49,103,87,80,66,15216,2147720356,2147449508,2148081581,2147870701,2147593234,2147140534,2148240347,2147208859,2517,3,13,27535
1377987956,5807,245.8399963378906200,15.2854003906250000,34.4623985290527340,212.2288970947265600,320.1648864746094000,15.3446998596191400,33.2677192687988300,49,103,83,79,66,15214,2147717659,2147466633,2148124763,2147873965,2147591396,2147156105,2148255478,2147215021,1831,2,13,64029
1377988097,5808,232.4799957275390600,16.0921993255615230,34.5564002990722660,212.4783020019531200,295.6643981933594000,16.0948505401611330,32.8969688415527340,49,105,83,79,65,15213,2147717211,2147490020,2148189257,2147872804,2147583433,2147175680,2148282834,2147214592,3387,2,13,9367
1377988197,5803,221.6399993896484400,17.2714996337890620,34.6880989074707000,210.3616027832031200,255.6613006591797000,17.3176193237304700,32.4432907104492200,50,104,83,80,65,15207,2147719771,2147517979,2148261202,2147871268,2147581632,2147200731,2148312283,2147216566,2746,3,14,59727
1377988312,5806,210.8300018310547000,18.2828998565673830,34.8166007995605500,210.9653930664062500,224.4369964599609400,18.2712192535400400,31.9729804992675780,52,108,88,79,64,15206,2147728740,2147569654,2148377499,2147873709,2147580681,2147233865,2148360667,2147220973,1966,3,14,39292
1377988429,5806,200.9499969482422000,19.1301002502441400,34.9281997680664060,209.4311065673828000,197.6788940429687500,19.0884895324707030,31.6885108947753900,59,108,86,80,64,15197,2147741577,2147628269,2148514998,2147871771,2147579492,2147271643,2148417051,2147227721,873,2,15,36475
1377988484,5809,196.6100006103515600,19.3451995849609380,34.9672012329101560,210.2882995605468800,189.3954925537109400,19.3415908813476560,31.5283393859863280,59,110,89,80,63,15192,2147749403,2147660443,2148589632,2147873609,2147585380,2147299419,2148450697,2147229202,551,2,14,64966
1377988539,5806,192.2799987792968800,19.6977005004882800,35.0134010314941400,211.2823028564453000,178.6049957275390600,19.6713905334472660,31.3276691436767580,60,109,84,80,64,15186,2147759140,2147706934,2148680731,2147876278,2147585170,2147328685,2148495204,2147235264,3452,2,14,5070
1377988594,5807,187.9600067138672000,19.9657993316650400,35.0498008728027340,212.7886047363281200,167.2532958984375000,20.0185203552246100,31.0930805206298830,65,112,87,81,63,15186,2147771282,2147754541,2148783040,2147875830,2147589723,2147355072,2148542345,2147236370,3257,1,15,44585
1377988649,5807,183.7400054931640600,20.3880004882812500,35.0894012451171900,212.5290069580078000,155.5493927001953000,20.3766307830810550,30.9501094818115230,74,112,86,81,62,15178,2147789549,2147811062,2148903533,2147875584,2147591588,2147390692,2148587254,2147243986,2884,2,15,34579
1377988729,5806,178.0000000000000000,20.5884990692138670,35.1203002929687500,213.6334991455078000,148.4821014404297000,20.5929908752441400,30.7967700958251950,78,112,88,81,62,15170,2147819565,2147912758,2149108800,2147875702,2147603940,2147440932,2148674870,2147251108,2985,2,15,19756
1377988796,5805,173.5299987792968800,20.7185001373291000,35.1394996643066400,215.9066009521484400,144.6452026367187500,20.7105007171630860,30.6257495880126950,78,115,89,80,61,15166,2147848256,2148011657,2149310016,2147876059,2147615972,2147491492,2148752228,2147254957,2711,2,15,63155
1377988851,5811,169.7799987792968800,20.7607994079589840,35.1428985595703100,216.1293945312500000,143.1083068847656200,20.7575798034667970,30.5940208435058600,79,119,88,81,62,15168,2147881197,2148103085,2149493668,2147879232,2147628224,2147537691,2148835355,2147261083,2322,1,14,42758
1377988906,5808,166.0299987792968800,20.9022998809814450,35.1553001403808600,215.8283996582031200,138.6506042480468800,20.8941593170166000,30.5504894256591800,85,115,89,81,61,15160,2147924187,2148223177,2149725677,2147880438,2147643657,2147601782,2148930971,2147267904,1311,2,15,60905
1377988961,5805,162.2599945068359400,20.9813003540039060,35.1682014465332000,216.8885955810547000,136.1576995849609400,20.9705600738525400,30.4624099731445300,86,117,87,80,61,15161,2147904521,2148105801,2149413184,2147878098,2147634432,2147538486,2148789376,2147261778,424,2,15,9261
1377989045,5811,157.0299987792968800,21.1205005645751950,35.1860008239746100,218.8625030517578000,131.3466033935547000,21.1180496215820300,30.2969303131103500,90,119,84,81,60,15152,2148064429,2148570532,2150393764,2147885897,2147700891,2147779026,2149211446,2147291748,3213,1,15,42341
1377989112,5807,153.7500000000000000,21.1646995544433600,35.1902999877929700,220.0077056884765600,130.0700988769531200,21.1571903228759770,30.2218704223632800,92,115,87,82,61,15157,2148027803,2148417700,2150036406,2147883876,2147683885,2147702720,2149067245,2147281627,2619,2,16,9026
1377989203,5757,149.6699981689453000,21.2884998321533200,35.2018013000488300,220.3585968017578000,126.0335006713867200,21.2809906005859380,30.1508407592773440,94,116,87,82,63,15148,2148162752,2148758637,2150698194,2147889261,2147735104,2147849060,2149288813,2147299337,2385,1,16,30169
1377989306,5808,146.3000030517578000,21.5158004760742200,35.2305984497070300,221.7552947998047000,119.0421981811523400,21.4955196380615230,29.9887599945068360,94,119,89,82,61,15145,2148117613,2148565540,2150209609,2147887314,2147721645,2147767707,2149116525,2147288109,1883,2,15,12965
1377989447,5804,143.5899963378906200,21.6453990936279300,35.2492980957031250,224.7512969970703000,114.3744964599609400,21.6388206481933600,29.7786903381347660,96,118,88,81,60,15144,2148511067,2149507739,2152053705,2147901668,2147878912,2148252900,2149900873,2147344054,969,1,15,64137
1377989694,5809,138.4299926757812500,21.9309997558593750,35.2843017578125000,228.1165924072265600,105.1784973144531200,21.9213409423828120,29.4948692321777340,105,119,88,81,60,15128,2148794020,2150064201,2153104182,2147914130,2147994880,2148519232,2150308772,2147374985,1242,2,15,52580
1377989785,5808,134.5599975585937500,22.0251998901367200,35.3012008666992200,230.5265045166015600,102.0315017700195300,22.0180892944335940,29.3383197784423830,107,117,87,81,60,15120,2148457371,2149157531,2151204406,2147899492,2147866825,2148082020,2149548333,2147324937,3506,1,15,46865
1377989876,5808,130.6300048828125000,22.1702995300292970,35.3050003051757800,231.6878051757812500,98.5322570800781200,22.1256999969482420,29.2383003234863280,111,118,87,82,60,15115,2149245778,2150912310,2154600237,2147939684,2148179574,2148905901,2150890998,2147420717,3189,2,15,50998
1377990008,5809,125.7099990844726600,22.3525009155273440,35.3045997619628900,234.2772979736328000,90.8893737792968800,22.3608798980712900,29.0186996459960940,124,118,88,82,60,15106,2149845147,2151972973,2156227684,2147966555,2148413449,2149349641,2151472009,2147478774,286,1,16,3719
1377990099,5809,122.0400009155273400,22.4514999389648440,35.2999992370605500,235.2984008789062500,88.0873489379882800,22.4471607208251950,28.9354305267334000,120,120,87,83,61,15101,2150605732,2153273536,2158096164,2147998875,2148685796,2149854893,2152112877,2147532443,3167,1,15,52173
1377990178,5810,118.8300018310546900,22.5319995880126950,35.3050003051757800,235.8484954833984400,85.3813095092773400,22.5305004119873050,28.8755607604980470,123,118,89,82,61,15098,2151577444,2154884854,2160278445,2148034304,2149049865,2150505563,2152908827,2147608118,2464,2,15,29566
1377990269,5808,114.6299972534179700,22.7451000213623050,35.3031005859375000,236.6490020751953000,79.6473464965820300,22.7071990966796880,28.7660007476806640,108,120,91,82,60,15098,2153102189,2157280548,2163406564,2148101394,2149643291,2151534290,2154133522,2147721618,1614,2,16,42354
1377990350,5809,110.3499984741211000,22.8586006164550780,35.3097000122070300,237.4947052001953000,75.5508728027343800,22.8335094451904300,28.6751899719238280,100,119,90,83,60,15105,2154549065,2159506368,2166320676,2148181120,2150237522,2152521673,2155313874,2147834806,2176,2,16,60922
1377990417,5808,106.2300033569336000,22.9869995117187500,35.3123016357421900,238.4015960693359400,71.0681762695312500,22.9718093872070300,28.5773792266845700,97,119,89,82,60,15104,2156102637,2161780260,2169204324,2148270381,2150868004,2153585115,2156577801,2147949677,2911,1,16,1700
1377990484,5807,102.0699996948242200,23.0513992309570300,35.3158988952636700,239.8943939208984400,68.9496765136718800,23.0372009277343750,28.4829101562500000,90,123,90,83,59,15102,2157700873,2164070692,2172109577,2148390912,2151593362,2154749888,2157892416,2148080320,3370,1,16,25399
1377990551,5808,98.1999969482421900,23.0799999237060550,35.3129997253418000,240.4550018310547000,67.9014892578125000,23.0695590972900400,28.4446392059326170,90,121,89,84,59,15100,2159684306,2166865280,2175577974,2148545645,2152499492,2156208987,2159550107,2148242349,3470,1,15,43869
1377990606,5806,95.4300003051757800,23.1137008666992200,35.3116989135742200,240.4570007324218800,67.1138229370117200,23.0938701629638670,28.4345493316650400,87,123,90,83,59,15096,2160029275,2166973531,2175084278,2148588818,2152737490,2156436160,2159617472,2148260818,3241,1,15,23026
1377990663,5809,93.1699981689453100,23.1949996948242200,35.3036003112793000,240.2194061279297000,64.2548522949218800,23.1821708679199220,28.4095592498779300,87,123,88,83,59,15097,2162733403,2171008484,2180325421,2148792859,2153871158,2158275748,2161754944,2148467812,2850,1,16,14729
1377990718,5806,91.7099990844726600,23.2695007324218750,35.3026008605957000,240.2373962402343800,63.1704788208007800,23.2156600952148440,28.3950691223144530,85,127,90,83,59,15101,2164197558,2172949952,2182536713,2148895497,2154532873,2159293010,2162825462,2148572452,2935,2,15,55994
1377990797,5806,90.8600006103515600,23.2852001190185550,35.3013992309570300,240.1681060791015600,61.3256683349609400,23.2726707458496100,28.3750991821289060,83,125,89,84,59,15088,2164478848,2172921179,2181884928,2148871296,2154792438,2159576786,2162918262,2148578816,3107,1,16,55572
1377991037,5811,89.1399993896484400,23.4902000427246100,35.3042984008789060,241.1062011718750000,54.3675689697265600,23.4877891540527340,28.2460899353027340,78,124,91,83,58,15082,2162923748,2168597650,2173292653,2148574784,2154639122,2158389750,2160338230,2148329453,2251,1,16,25532
1377991104,5807,86.8000030517578100,23.6119995117187500,35.3067016601562500,241.0948028564453000,51.0988883972168000,23.5889205932617200,28.2059192657470700,77,125,91,82,57,15085,2167082486,2173729984,2178898468,2148816667,2156654043,2161148699,2162878893,2148591661,1582,1,16,38370
1377991159,5805,84.6500015258789000,23.7462997436523440,35.3151016235351560,241.7178039550781200,46.7663803100585940,23.7230396270751950,28.1243000030517580,77,127,93,84,60,15081,2179317184,2191089654,2200565074,2149776621,2162164681,2169723666,2172171638,2149498642,1837,1,16,11587
1377991214,5808,82.3899993896484400,23.7912998199462900,35.3171997070312500,243.2263031005859400,44.9061317443847660,23.7806491851806640,28.0341491699218750,77,123,91,83,59,15077,2181623241,2193084013,2201662902,2149958582,2163713819,2171481197,2173432137,2149651593,1667,1,16,46839
1377991269,5806,80.0999984741211000,23.8134994506835940,35.3157997131347660,244.4147033691406200,44.0625991821289060,23.8067893981933600,27.9712600708007800,76,124,93,85,58,15080,2185285440,2197063012,2205217965,2150269074,2165904566,2174332955,2175980827,2149923712,1107,1,16,24678
1377991353,5804,76.1299972534179700,23.8323993682861330,35.3083992004394500,245.6952972412109400,43.2305793762207000,23.8325595855712900,27.9049606323242200,75,126,92,85,57,15076,2196391881,2210279076,2220004132,2151382774,2171658742,2181899126,2182980891,2150703744,450,1,16,26860
1377991408,5805,73.2300033569336000,23.9822998046875000,35.2918014526367200,246.0883941650390600,38.7392387390136700,23.9717693328857420,27.8322391510009770,73,124,92,84,58,15079,2203083538,2217780964,2227682038,2152223232,2175077988,2185874203,2186096877,2151146230,894,1,16,30569
1377991463,5811,71.0800018310546900,24.0835990905761720,35.2893981933593750,247.0751953125000000,35.4139099121093750,24.0748996734619140,27.7485103607177730,70,124,90,84,59,15078,2168222610,2171102646,2171978029,2148955766,2158310235,2161004891,2160410971,2148451712,437,1,15,11084
1377991530,5805,69.1900024414062500,24.3675994873046880,35.2787017822265600,247.9924011230468800,29.7334499359130860,24.2511997222900400,27.6389503479003900,68,124,90,85,58,15074,2184696996,2190812178,2193073846,2150263561,2167440758,2173160603,2171681828,2149610861,3189,2,15,1063
1377991662,5810,66.5699996948242200,24.4678001403808600,35.2946014404296900,250.2310943603515600,22.8316097259521500,24.4656391143798830,27.4586505889892580,70,125,91,85,54,15060,2229613613,2245331565,2253436324,2154952137,2193039241,2207057088,2203080429,2153060928,668,1,16,55100
1377991717,5807,64.0400009155273400,24.5431003570556640,35.3003005981445300,250.9714050292968800,20.3572807312011720,24.5425701141357420,27.3968696594238280,67,126,89,87,55,15055,2239804224,2255660406,2263346194,2156463012,2200089901,2214832685,2209053577,2153896173,292,1,15,44004
1377991772,5809,61.0900001525878900,24.7119007110595700,35.2703018188476560,251.4078979492187500,15.0744400024414060,24.7069492340087900,27.3139991760253900,65,126,93,85,56,15067,2249149229,2264752164,2271519680,2158127570,2206575232,2221542930,2214077878,2154601270,3030,1,16,23507
1377991827,5810,58.2900009155273440,24.8687000274658200,35.2803993225097660,251.6067962646484400,9.9978265762329100,24.8650493621826170,27.2437992095947270,65,124,93,85,55,15060,2255716105,2270471195,2275793554,2159602450,2213617033,2228966016,2219521124,2155444681,2344,1,15,54411
1377991882,5811,55.5699996948242200,25.1000003814697270,35.2709999084472660,251.6593933105468800,3.5693318843841553,25.0654602050781250,27.1633796691894530,65,128,92,86,54,15054,2270498761,2285737856,2292227044,2162892333,2222316315,2238420800,2226765010,2156765805,1482,1,16,19435
1377991939,5807,53.3100013732910160,25.1469001770019530,35.2627983093261700,252.1822967529297000,1.5185860395431519,25.1294403076171880,27.1163997650146500,63,128,90,88,53,15047,2267436242,2282119753,2288599058,2163880246,2218204315,2232226468,2220655268,2156524041,1314,1,16,55040
1377991994,5810,51.7400016784668000,25.2425994873046880,35.2621002197265600,252.3878021240234400,-1.5273389816284180,25.2245197296142580,27.0709095001220700,65,145,90,85,57,15048,2288818038,2305904475,2313125705,2167822802,2234565513,2251911332,2237733760,2158663222,1670,1,17,40700
1377992061,5808,50.4399986267089840,25.2744007110595700,35.2689018249511700,252.9931030273437500,-3.1531240940093994,25.2752990722656250,27.0258407592773440,64,125,92,87,54,15037,2283076589,2297277705,2302354953,2166713261,2230528502,2246122898,2232226240,2157985206,2517,1,16,42587
1377992325,5810,47.9000015258789060,25.3437004089355470,35.2764015197753900,253.2967071533203000,-5.7764501571655270,25.3572502136230470,26.9814796447753900,60,127,91,86,54,15042,2313444644,2326312237,2330075602,2172483437,2255967917,2273775488,2253516242,2161177956,402,1,16,393
1377992380,5809,45.9599990844726560,25.4388999938964840,35.2885017395019500,253.2993011474609400,-8.2995595932006840,25.4361190795898440,26.9508705139160160,61,128,95,86,55,15040,2323495552,2335565869,2339198582,2176313755,2263396114,2279652059,2256494546,2162114706,548,1,16,48612
1377992435,5805,43.9500007629394500,25.5153007507324220,35.2949981689453100,253.1782989501953000,-11.3195199966430660,25.5305595397949220,26.9192695617675780,61,126,93,88,51,15042,2337918646,2347776740,2349457828,2180263652,2275407862,2291110957,2264223853,2163613421,377,0,16,34362
1377992490,5806,42.2900009155273440,25.7441005706787100,35.3100013732910160,252.3386993408203000,-18.0210304260253900,25.7403507232666000,26.8733291625976560,59,126,95,88,56,15035,2353986697,2364059849,2366323958,2185312329,2285847305,2300918537,2271007753,2165119140,172,1,16,62117
1377992586,5811,40.1899986267089840,26.0746002197265620,35.3045005798339840,250.9297027587890600,-25.7342395782470700,25.9821605682373050,26.8390808105468750,58,126,93,86,54,15035,2369602176,2374906724,2372308882,2188654107,2310629933,2324692790,2287300288,2168072566,958,1,16,41103
1377992665,5808,37.9900016784668000,26.6573009490966800,35.2775993347168000,246.0453033447265600,-48.4090805053710940,26.6953392028808600,26.7715206146240230,57,124,95,86,58,15039,2377649865,2380206948,2374639990,2192751021,2320590619,2331415387,2289747894,2168715126,1427,1,16,20058
1377992744,5808,36.7700004577636700,27.2257995605468750,35.3105010986328100,239.7541961669922000,-63.8714981079101560,27.1837501525878900,26.8562507629394530,55,125,93,86,59,15052,2381028196,2383706331,2379391753,2195612562,2319833161,2329720859,2287720722,2169014454,1164,0,16,40717
1377993581,5805,33.8100013732910160,27.7359008789062500,35.2794990539550800,225.1739959716797000,-81.5012969970703100,27.7428398132324220,27.3012294769287100,52,118,93,84,60,15064,2368670729,2365972790,2357375515,2196312512,2351591360,2344253613,2285421632,2168740690,2618,0,16,44958
1377993636,5808,31.3799991607666000,27.7378997802734380,35.2783012390136700,224.8609924316406200,-81.7033004760742200,27.7492599487304700,27.3134098052978500,52,117,89,83,53,15058,2422003465,2422441252,2416523812,2218407780,2430206162,2421121837,2340666816,2179018203,2316,1,17,5547
1377993691,5808,28.8799991607666000,27.7450008392334000,35.2761001586914060,224.6508941650390600,-82.0570602416992200,27.7604999542236330,27.3188800811767580,52,116,90,84,60,15064,2445700507,2448237668,2445577490,2236315849,2460629750,2445814189,2354800374,2182989595,2265,0,17,38403